{"data":{"norad_id":58679,"intl_designator":"2023-211N","name":"STARLINK-31110","alt_names":[],"object_type":"PAYLOAD","status":"ACTIVE","operator":null,"country":"US","launch_date":"2023-12-29","launch_site_code":"AFETR","launch_vehicle":null,"mission":null,"orbit_class":"UNKNOWN","rcs_meters":null,"size_class":null,"mass_kg":null,"dimensions":null,"purposes":["comms"],"wikipedia_slug":null,"has_3d_model":false,"image_url":null,"decayed_at":null,"tle_current":{"epoch":"2026-09-20T17:14:37.396896Z","epoch_age_seconds":130915,"freshness":"FRESH","line1":"1 58679U 23211N   26263.71848839  .00000654  00000+0  33278-4 0  9992","line2":"2 58679  43.0028  63.6920 0001322 269.2592  90.8108 15.27580738152294","mean_motion":15.27580738,"eccentricity":0.0001322,"inclination_deg":43.0028,"raan_deg":63.692,"arg_perigee_deg":269.2592,"mean_anomaly_deg":90.8108,"bstar":3.3278e-5,"rev_number":15229,"period_min":94.266703171797,"perigee_km":482.13983769329,"apogee_km":483.9539347128,"semimajor_km":6861.183886203,"source":"CELESTRAK","updated_at":"2026-09-21T09:00:33.944382Z"}}}